Date String (YYYY-MM-DD hh:mm:ss) UTC,Instrument flags,Ambient pressure (hPa),Sample flow (lpm),Bypass flow (lpm),Sample temperature (°C),Ambient temperature (°C),ASC tube jacket temperature (°C),LED temperature (°C),Box temperature (°C),Sample RH (%),Span deviation,Mass concentration (μg/m³),Mass concentration (μg/m³),Mass concentration (μg/m³)
DateTimeUTC,F1_M11,P_M11,Q1_M11,Q2_M11,T1_M11,T2_M11,T3_M11,T4_M11,T5_M11,U1_M11,ZSPAN_M11,X0_M11,X2_M11,X1_M11
2022-06-17 05:00:00,,0828.6,5.00,0.00,29.1,27.8,00.0,37.9,31.1,33.1,0002.2,0022.68,0009.62,0005.52
2022-06-17 05:01:00,,0828.5,5.00,0.00,29.1,28.0,00.0,37.9,31.1,33.0,0003.7,0021.60,0009.59,0005.50
2022-06-17 05:02:00,,0829.0,5.00,0.00,29.1,28.1,00.0,37.9,31.2,33.0,0003.3,0021.31,0009.59,0005.48
2022-06-17 05:03:00,,0828.9,5.01,0.00,29.2,28.2,00.0,37.9,31.2,32.9,0000.2,0021.13,0009.54,0005.46
2022-06-17 05:04:00,,0829.1,4.99,0.00,29.2,28.4,00.0,37.9,31.3,32.8,0000.0,0021.05,0009.51,0005.47
2022-06-17 05:05:00,,0829.1,5.01,0.00,29.3,28.5,00.0,38.0,31.3,32.7,0000.0,0021.47,0009.52,0005.44
2022-06-17 05:06:00,,0828.8,5.01,0.00,29.3,28.3,00.0,38.0,31.3,32.6,0001.9,0021.51,0009.49,0005.43
2022-06-17 05:07:00,,0828.6,4.99,0.00,29.2,27.5,00.0,37.9,31.1,32.7,0002.4,0021.75,0009.52,0005.44
2022-06-17 05:08:00,,0828.5,5.00,0.00,29.1,26.9,00.0,37.9,30.9,32.8,0001.4,0021.43,0009.51,0005.45
2022-06-17 05:09:00,,0828.5,5.00,0.00,29.1,26.8,00.0,37.8,30.8,32.9,0000.0,0021.67,0009.62,0005.46
2022-06-17 05:10:00,,0828.5,4.99,0.00,29.0,26.8,00.0,37.8,30.8,33.0,0000.0,0022.35,0009.63,0005.45
2022-06-17 05:11:00,,0828.5,5.00,0.00,29.0,27.0,00.0,37.8,30.8,33.1,0000.0,0022.68,0009.62,0005.44
2022-06-17 05:12:00,,0828.5,5.00,0.00,29.0,27.2,00.0,37.8,30.9,33.2,0000.0,0022.96,0009.64,0005.46
2022-06-17 05:13:00,,0828.6,4.99,0.00,29.0,27.4,00.0,37.8,30.9,33.2,0000.0,0022.92,0009.63,0005.46
2022-06-17 05:14:00,,0828.6,5.00,0.00,29.0,27.6,00.0,37.8,31.0,33.2,0000.0,0023.42,0009.72,0005.48
2022-06-17 05:15:00,,0829.1,4.99,0.00,29.0,27.7,00.0,37.8,31.0,33.2,0000.0,0024.19,0009.76,0005.49
2022-06-17 05:16:00,,0829.1,5.01,0.00,29.1,27.9,00.0,37.9,31.1,33.2,0000.0,0024.11,0009.74,0005.50
2022-06-17 05:17:00,,0829.1,5.00,0.00,29.1,28.0,00.0,37.9,31.1,33.2,0000.0,0024.78,0009.75,0005.52
2022-06-17 05:18:00,,0828.8,5.00,0.00,29.1,28.2,00.0,37.9,31.2,33.2,0000.0,0024.68,0009.74,0005.53
2022-06-17 05:19:00,,0829.0,4.99,0.00,29.2,28.3,00.0,37.9,31.2,33.2,0000.0,0025.00,0009.77,0005.53
2022-06-17 05:20:00,,0828.7,5.01,0.00,29.2,28.4,00.0,37.9,31.3,33.1,0000.0,0025.49,0009.76,0005.54
2022-06-17 05:21:00,,0829.1,5.00,0.00,29.3,28.5,00.0,38.0,31.3,33.1,0000.0,0025.05,0009.73,0005.54
2022-06-17 05:22:00,,0829.0,4.99,0.00,29.3,28.3,00.0,38.0,31.3,33.0,0000.0,0025.03,0009.79,0005.55
2022-06-17 05:23:00,,0828.8,5.01,0.00,29.2,27.4,00.0,37.9,31.0,33.1,0000.0,0025.40,0009.84,0005.55
2022-06-17 05:24:00,,0828.9,5.00,0.00,29.1,26.8,00.0,37.9,30.9,33.4,0000.0,0026.11,0009.83,0005.57
2022-06-17 05:25:00,,0829.1,5.00,0.00,29.1,26.6,00.0,37.8,30.8,33.5,0000.0,0026.16,0009.81,0005.56
2022-06-17 05:26:00,,0828.8,5.00,0.00,29.0,26.7,00.0,37.8,30.8,33.7,0000.0,0025.46,0009.71,0005.55
2022-06-17 05:27:00,,0829.0,4.99,0.00,29.0,26.9,00.0,37.8,30.8,33.8,0000.0,0024.93,0009.68,0005.55
2022-06-17 05:28:00,,0829.0,5.00,0.00,29.0,27.1,00.0,37.8,30.8,34.0,0000.0,0023.96,0009.67,0005.54
2022-06-17 05:29:00,,0829.1,5.01,0.00,29.0,27.3,00.0,37.8,30.9,34.2,0000.6,0023.68,0009.73,0005.53
2022-06-17 05:30:00,,0829.1,4.99,0.00,29.0,27.5,00.0,37.8,30.9,34.3,0002.5,0023.20,0009.66,0005.52
2022-06-17 05:31:00,,0829.2,5.01,0.00,29.0,27.7,00.0,37.8,31.0,34.4,0004.2,0022.85,0009.69,0005.53
2022-06-17 05:32:00,,0829.2,5.00,0.00,29.1,27.8,00.0,37.8,31.1,34.6,0003.6,0022.87,0009.63,0005.53
2022-06-17 05:33:00,,0829.3,4.99,0.00,29.1,28.0,00.0,37.9,31.1,34.7,0004.4,0023.18,0009.67,0005.54
2022-06-17 05:34:00,,0829.2,5.00,0.00,29.1,28.1,00.0,37.9,31.1,34.7,0004.3,0023.57,0009.61,0005.55
2022-06-17 05:35:00,,0829.2,5.00,0.00,29.2,28.2,00.0,37.9,31.2,34.7,0004.5,0023.11,0009.63,0005.56
2022-06-17 05:36:00,,0829.3,5.01,0.00,29.2,28.3,00.0,37.9,31.2,34.7,0003.8,0023.49,0009.60,0005.57
2022-06-17 05:37:00,,0829.3,5.00,0.00,29.2,28.4,00.0,38.0,31.3,34.7,0002.5,0023.42,0009.61,0005.59
2022-06-17 05:38:00,,0829.3,4.99,0.00,29.3,28.5,00.0,38.0,31.3,34.8,0002.6,0024.03,0009.66,0005.61
2022-06-17 05:39:00,,0829.2,5.00,0.00,29.3,28.0,00.0,37.9,31.2,34.8,0001.9,0024.35,0009.71,0005.62
2022-06-17 05:40:00,,0829.2,5.00,0.00,29.2,27.4,00.0,37.9,31.1,34.9,0000.9,0024.38,0009.67,0005.63
2022-06-17 05:41:00,,0829.2,5.01,0.00,29.2,27.3,00.0,37.9,31.0,35.1,0000.0,0025.37,0009.83,0005.67
2022-06-17 05:42:00,,0829.3,5.00,0.00,29.4,27.3,00.0,37.9,31.2,34.7,0000.0,0026.26,0009.91,0005.68
2022-06-17 05:43:00,,0829.2,5.00,0.00,29.6,27.4,00.0,37.9,31.2,34.3,0001.5,0026.77,0009.99,0005.68
2022-06-17 05:44:00,,0829.2,4.99,0.00,29.6,27.6,00.0,38.0,31.2,34.0,0000.8,0031.35,0010.04,0005.68
2022-06-17 05:45:00,,0829.2,5.00,0.00,29.7,27.8,00.0,38.0,31.3,33.8,-000.6,0031.87,0010.16,0005.67
2022-06-17 05:46:00,,0829.2,5.01,0.00,29.7,27.9,00.0,38.0,31.3,33.8,-000.5,0032.37,0010.22,0005.67
2022-06-17 05:47:00,,0829.3,5.00,0.00,29.8,28.0,00.0,38.1,31.3,33.9,-000.1,0032.09,0010.30,0005.67
2022-06-17 05:48:00,,0829.3,5.00,0.00,29.8,28.2,00.0,38.2,31.4,34.0,0000.2,0032.02,0010.37,0005.67
2022-06-17 05:49:00,,0829.4,4.99,0.00,29.8,28.3,00.0,38.2,31.4,34.1,-000.4,0032.13,0010.45,0005.67
2022-06-17 05:50:00,,0829.4,5.00,0.00,29.8,28.4,00.0,38.3,31.5,34.2,-000.1,0033.33,0010.55,0005.69
2022-06-17 05:51:00,,0829.4,5.00,0.00,29.9,28.5,00.0,38.3,31.5,34.3,0000.3,0033.93,0010.60,0005.71
2022-06-17 05:52:00,,0829.5,4.99,0.00,29.9,28.5,00.0,38.3,31.5,34.5,0000.4,0034.20,0010.61,0005.69
2022-06-17 05:53:00,,0829.5,5.01,0.00,29.9,28.0,00.0,38.3,31.4,34.7,-000.5,0033.73,0010.64,0005.70
2022-06-17 05:54:00,,0829.6,4.99,0.00,29.8,27.5,00.0,38.3,31.3,34.8,-000.9,0034.01,0010.65,0005.72
2022-06-17 05:55:00,,0829.5,5.00,0.00,29.8,27.4,00.0,38.3,31.2,35.1,-001.0,0031.04,0010.68,0005.73
2022-06-17 05:56:00,,0829.5,5.00,0.00,29.8,27.5,00.0,38.3,31.3,35.1,-000.6,0028.31,0010.62,0005.74
2022-06-17 05:57:00,,0829.5,4.99,0.00,30.1,27.6,00.0,38.3,31.4,34.6,-000.1,0027.75,0010.57,0005.75
2022-06-17 05:58:00,,0829.6,5.00,0.00,30.2,27.7,00.0,38.3,31.5,34.3,-000.1,0027.86,0010.52,0005.73
2022-06-17 05:59:00,,0829.6,5.01,0.00,30.3,27.9,00.0,38.4,31.5,34.1,0000.8,0028.28,0010.43,0005.71
